• In Uzbekistan
  • List of Countries
  • For 7 days
  • Water Temperature
  • Satellite Maps
  • Weather Map
  • Weather Widgets
  • user-avatar
    Login

    Hourly Weather Korçe

    Today, 30 March, Thursday

    Time Temperature Precipitation Wind Pressure Humidity
    00:00 +4°C° 0 mm 2 mps 667 mmHg 66%
    01:00 +4°C° 0 mm 2 mps 666 mmHg 64%
    02:00 +4°C° 0 mm 2 mps 666 mmHg 64%
    03:00 +3°C° 0 mm 2 mps 666 mmHg 64%
    04:00 +3°C° 0 mm 2 mps 666 mmHg 65%
    05:00 +5°C° 0 mm 2 mps 667 mmHg 63%
    06:00 +6°C° 0 mm 2 mps 667 mmHg 62%
    07:00 +8°C° 0 mm 2 mps 668 mmHg 58%
    08:00 +10°C° 0 mm 2 mps 668 mmHg 53%
    09:00 +13°C° 0 mm 2 mps 669 mmHg 47%
    10:00 +14°C° 0 mm 3 mps 670 mmHg 41%
    11:00 +14°C° 0 mm 3 mps 670 mmHg 39%
    12:00 +16°C° 0 mm 3 mps 670 mmHg 37%
    13:00 +17°C° 0 mm 3 mps 670 mmHg 35%
    14:00 +16°C° 0 mm 3 mps 669 mmHg 37%
    15:00 +16°C° 0 mm 3 mps 669 mmHg 38%
    16:00 +16°C° 0 mm 3 mps 669 mmHg 40%
    17:00 +12°C° 0 mm 3 mps 669 mmHg 49%
    18:00 +10°C° 0 mm 2 mps 668 mmHg 57%
    19:00 +8°C° 0 mm 2 mps 668 mmHg 66%
    20:00 +7°C° 0 mm 2 mps 668 mmHg 68%
    21:00 +7°C° 0 mm 2 mps 669 mmHg 69%
    22:00 +6°C° 0 mm 2 mps 669 mmHg 71%
    23:00 +6°C° 0 mm 2 mps 669 mmHg 73%

    Tomorrow, 31 March, Friday

    Time Temperature Precipitation Wind Pressure Humidity
    00:00 +6°C° 0 mm 2 mps 669 mmHg 76%
    01:00 +5°C° 0 mm 2 mps 669 mmHg 78%
    02:00 +5°C° 0 mm 2 mps 669 mmHg 80%
    03:00 +5°C° 0 mm 2 mps 669 mmHg 81%
    04:00 +4°C° 0 mm 2 mps 669 mmHg 83%
    05:00 +5°C° 0 mm 2 mps 669 mmHg 80%
    06:00 +6°C° 0 mm 2 mps 670 mmHg 76%
    07:00 +7°C° 0 mm 2 mps 670 mmHg 73%
    08:00 +9°C° 0 mm 2 mps 671 mmHg 65%
    09:00 +12°C° 0 mm 2 mps 671 mmHg 57%
    10:00 +14°C° 0 mm 2 mps 672 mmHg 50%
    11:00 +15°C° 0 mm 2 mps 672 mmHg 47%
    12:00 +16°C° 0 mm 1 mps 672 mmHg 45%
    13:00 +16°C° 0 mm 1 mps 672 mmHg 42%
    14:00 +16°C° 0.2 mm 2 mps 671 mmHg 45%
    15:00 +15°C° 0.2 mm 2 mps 671 mmHg 48%
    16:00 +14°C° 0.2 mm 2 mps 670 mmHg 51%
    17:00 +12°C° 0.1 mm 1 mps 670 mmHg 59%
    18:00 +10°C° 0.1 mm 1 mps 670 mmHg 68%
    19:00 +9°C° 0.1 mm 1 mps 669 mmHg 76%
    20:00 +8°C° 0 mm 1 mps 669 mmHg 79%
    21:00 +7°C° 0 mm 1 mps 669 mmHg 81%
    22:00 +6°C° 0 mm 1 mps 669 mmHg 83%
    23:00 +6°C° 0 mm 1 mps 669 mmHg 84%

    Day after tomorrow, 1 April, Saturday

    Time Temperature Precipitation Wind Pressure Humidity
    00:00 +6°C° 0 mm 1 mps 669 mmHg 84%
    01:00 +5°C° 0 mm 1 mps 669 mmHg 85%
    02:00 +5°C° 0 mm 1 mps 669 mmHg 86%
    03:00 +5°C° 0 mm 1 mps 668 mmHg 86%
    04:00 +4°C° 0 mm 1 mps 668 mmHg 87%
    05:00 +5°C° 0 mm 1 mps 668 mmHg 82%
    06:00 +7°C° 0 mm 1 mps 669 mmHg 78%
    07:00 +8°C° 0 mm 1 mps 669 mmHg 73%
    08:00 +10°C° 0 mm 1 mps 670 mmHg 64%
    09:00 +12°C° 0 mm 1 mps 670 mmHg 55%
    10:00 +15°C° 0 mm 1 mps 671 mmHg 46%
    11:00 +15°C° 0 mm 1 mps 671 mmHg 43%
    12:00 +16°C° 0 mm 1 mps 671 mmHg 40%
    13:00 +17°C° 0 mm 2 mps 671 mmHg 37%
    14:00 +16°C° 0.1 mm 2 mps 670 mmHg 41%
    15:00 +15°C° 0.1 mm 2 mps 670 mmHg 45%
    16:00 +14°C° 0.1 mm 2 mps 669 mmHg 48%
    17:00 +12°C° 0.2 mm 2 mps 669 mmHg 59%
    18:00 +10°C° 0.2 mm 1 mps 668 mmHg 70%
    19:00 +7°C° 0.2 mm 1 mps 668 mmHg 81%
    20:00 +7°C° 0 mm 1 mps 668 mmHg 83%
    21:00 +7°C° 0 mm 1 mps 668 mmHg 84%
    22:00 +6°C° 0 mm 1 mps 668 mmHg 85%
    23:00 +6°C° 0 mm 1 mps 668 mmHg 85%

    2 April, Sunday

    Time Temperature Precipitation Wind Pressure Humidity
    00:00 +5°C° 0 mm 1 mps 668 mmHg 86%
    01:00 +4°C° 0 mm 2 mps 667 mmHg 86%
    02:00 +4°C° 0 mm 2 mps 667 mmHg 85%
    03:00 +3°C° 0 mm 2 mps 667 mmHg 85%
    04:00 +3°C° 0 mm 2 mps 667 mmHg 84%
    05:00 +4°C° 0 mm 2 mps 667 mmHg 77%
    06:00 +5°C° 0 mm 2 mps 667 mmHg 71%
    07:00 +6°C° 0 mm 2 mps 668 mmHg 64%
    08:00 +8°C° 0 mm 2 mps 668 mmHg 52%
    09:00 +10°C° 0 mm 2 mps 669 mmHg 41%
    10:00 +13°C° 0 mm 2 mps 670 mmHg 29%
    11:00 +14°C° 0 mm 2 mps 670 mmHg 28%
    12:00 +14°C° 0 mm 3 mps 669 mmHg 27%
    13:00 +14°C° 0 mm 3 mps 669 mmHg 26%
    14:00 +14°C° 0 mm 3 mps 669 mmHg 30%
    15:00 +13°C° 0 mm 3 mps 668 mmHg 34%
    16:00 +12°C° 0 mm 3 mps 668 mmHg 38%
    17:00 +10°C° 0 mm 2 mps 668 mmHg 46%
    18:00 +9°C° 0 mm 2 mps 667 mmHg 54%
    19:00 +7°C° 0 mm 2 mps 667 mmHg 61%
    20:00 +6°C° 0 mm 2 mps 667 mmHg 63%
    21:00 +6°C° 0 mm 2 mps 667 mmHg 65%
    22:00 +6°C° 0 mm 2 mps 667 mmHg 67%
    23:00 +5°C° 0.3 mm 2 mps 667 mmHg 70%

    3 April, Monday

    Time Temperature Precipitation Wind Pressure Humidity
    00:00 +5°C° 0.3 mm 2 mps 666 mmHg 74%
    01:00 +5°C° 0.3 mm 2 mps 666 mmHg 78%
    02:00 +5°C° 0.2 mm 2 mps 666 mmHg 79%
    03:00 +5°C° 0.2 mm 2 mps 666 mmHg 81%
    04:00 +4°C° 0.2 mm 2 mps 666 mmHg 83%
    05:00 +5°C° 0 mm 2 mps 666 mmHg 81%
    06:00 +5°C° 0 mm 2 mps 666 mmHg 79%
    07:00 +6°C° 0 mm 2 mps 666 mmHg 77%
    08:00 +7°C° 0 mm 2 mps 667 mmHg 69%
    09:00 +9°C° 0 mm 2 mps 667 mmHg 61%
    10:00 +10°C° 0 mm 2 mps 668 mmHg 53%
    11:00 +12°C° 0.3 mm 2 mps 667 mmHg 53%
    12:00 +12°C° 0.3 mm 2 mps 667 mmHg 53%
    13:00 +12°C° 0.3 mm 2 mps 666 mmHg 53%
    14:00 +10°C° 0.9 mm 2 mps 666 mmHg 60%
    15:00 +9°C° 0.9 mm 2 mps 666 mmHg 67%
    16:00 +9°C° 0.9 mm 1 mps 665 mmHg 75%
    17:00 +8°C° 0.8 mm 1 mps 665 mmHg 80%
    18:00 +7°C° 0.8 mm 1 mps 665 mmHg 86%
    19:00 +6°C° 0.8 mm 1 mps 665 mmHg 92%
    20:00 +6°C° 0.7 mm 1 mps 665 mmHg 93%
    21:00 +6°C° 0.7 mm 1 mps 665 mmHg 94%
    22:00 +5°C° 0.7 mm 1 mps 665 mmHg 94%
    23:00 +5°C° 0.3 mm 1 mps 665 mmHg 95%

    4 April, Tuesday

    Time Temperature Precipitation Wind Pressure Humidity
    00:00 +5°C° 0.3 mm 1 mps 665 mmHg 95%
    01:00 +5°C° 0.3 mm 1 mps 664 mmHg 95%
    02:00 +4°C° 0.1 mm 1 mps 664 mmHg 95%
    03:00 +4°C° 0.1 mm 1 mps 664 mmHg 95%
    04:00 +4°C° 0.1 mm 1 mps 664 mmHg 94%
    05:00 +5°C° 0 mm 1 mps 664 mmHg 91%
    06:00 +5°C° 0 mm 1 mps 664 mmHg 88%
    07:00 +6°C° 0 mm 1 mps 665 mmHg 85%
    08:00 +8°C° 0 mm 1 mps 665 mmHg 76%
    09:00 +10°C° 0 mm 1 mps 666 mmHg 68%
    10:00 +12°C° 0 mm 1 mps 666 mmHg 60%
    11:00 +12°C° 0.4 mm 1 mps 666 mmHg 60%
    12:00 +12°C° 0.4 mm 1 mps 666 mmHg 60%
    13:00 +12°C° 0.4 mm 1 mps 666 mmHg 60%
    14:00 +11°C° 0.9 mm 1 mps 665 mmHg 65%
    15:00 +11°C° 0.9 mm 1 mps 665 mmHg 69%
    16:00 +10°C° 0.9 mm 1 mps 665 mmHg 74%
    17:00 +9°C° 1 mm 1 mps 665 mmHg 80%
    18:00 +8°C° 1 mm 1 mps 664 mmHg 86%
    19:00 +5°C° 1 mm 0 mps 664 mmHg 92%
    20:00 +5°C° 1.2 mm 0 mps 664 mmHg 93%
    21:00 +5°C° 1.2 mm 0 mps 664 mmHg 93%
    22:00 +5°C° 1.2 mm 0 mps 664 mmHg 94%
    23:00 +5°C° 0.7 mm 0 mps 664 mmHg 94%
    Show more